Home > Weather > Kemerovo > Past weeks

Flag for Russia Past Weather in Kemerovo, Russia — Yesterday and Last 2 Weeks

Now
64 °F

Passing clouds.


Feels Like: 64 °F
Forecast: 62 / 76 °F
Wind: 1 mph from North

Location: Kemerovo

Current Time: Jul 30, 2016 at 12:59:15 AM

Latest Report: Jul 30, 2016 at 12:30 AM


Visibility: 4 mi

Pressure: 29.65 "Hg

Humidity: 94%

Dew Point: 63 °F

Location of KemerovoLocation

Past Weather in Kemerovo — Graph

°F

Kemerovo Temperature Yesterday

Maximum temperature yesterday: 73 °F (at 2:30 PM)
Minimum temperature yesterday: 57 °F (at 6:30 AM)
Average temperature yesterday: 66 °F

High & Low Weather Summary for the Past Weeks

 TemperatureHumidityPressure
High88 °F (Jul 15, 5:00 PM)100% (Jul 16, 2:30 AM)29.80 "Hg (Jul 16, 2:30 AM)
Low55 °F (Jul 28, 3:30 AM)43% (Jul 15, 5:00 PM)29.53 "Hg (Jul 17, 4:00 AM)
Average68 °F79%29.66 "Hg
* Reported Jul 14 11:00 PM — Jul 29 11:30 PM, Kemerovo, Weather by CustomWeather, © 2016

Note: Actual official high and low records may vary slightly from our data, if they occured in-between our weather recording intervals... More about our weather records

Advertising

Kemerovo Weather History for the Previous 24 Hours

Scroll right to see more
 ConditionsComfort  
Time TempWeatherWind HumidityBarometerVisibility
11:30 PM
Fri, Jul 29
66 °FPassing clouds.1 mph88%29.65 "Hg4 mi
11:00 PM66 °FPassing clouds.1 mph88%29.65 "Hg4 mi
10:30 PM66 °FPassing clouds.1 mph94%29.65 "Hg4 mi
10:00 PM68 °FScattered clouds.3 mph88%29.65 "Hg4 mi
9:30 PM68 °FScattered clouds.3 mph88%29.65 "Hg4 mi
9:00 PM68 °FScattered clouds.3 mph88%29.65 "Hg4 mi
8:30 PM70 °FScattered clouds.6 mph83%29.65 "Hg4 mi
8:00 PM70 °FScattered clouds.3 mph83%29.65 "Hg4 mi
7:30 PM70 °FScattered clouds.3 mph83%29.65 "Hg4 mi
7:00 PM70 °FScattered clouds.6 mph83%29.65 "Hg4 mi
6:30 PM70 °FScattered clouds.6 mph78%29.65 "Hg4 mi
6:00 PM72 °FScattered clouds.6 mph78%29.68 "Hg6 mi
5:30 PM73 °FScattered clouds.3 mph69%29.68 "Hg6 mi
5:00 PM73 °FScattered clouds.3 mph69%29.68 "Hg6 mi
4:30 PM73 °FScattered clouds.1 mph69%29.68 "Hg6 mi
4:00 PM73 °FScattered clouds.3 mph69%29.68 "Hg6 mi
3:30 PM72 °FScattered clouds.3 mph73%29.68 "Hg6 mi
3:00 PM72 °FScattered clouds.3 mph73%29.68 "Hg6 mi
2:30 PM73 °FScattered clouds.6 mph69%29.68 "Hg6 mi
2:00 PM72 °FScattered clouds.6 mph69%29.68 "Hg6 mi
1:30 PM72 °FScattered clouds.6 mph69%29.68 "Hg6 mi
1:00 PM72 °FPartly sunny.6 mph69%29.68 "Hg6 mi
12:30 PM68 °FPartly sunny.3 mph78%29.68 "Hg4 mi
12:00 PM68 °FPartly sunny.6 mph73%29.68 "Hg4 mi
11:30 AM66 °FPartly sunny.3 mph78%29.68 "Hg4 mi
11:00 AM66 °FPartly sunny.6 mph73%29.68 "Hg4 mi
10:30 AM66 °FPartly sunny.3 mph73%29.68 "Hg4 mi
10:00 AM64 °FPartly sunny.6 mph78%29.68 "Hg4 mi
9:30 AM63 °FPartly sunny.6 mph83%29.68 "Hg4 mi
9:00 AM63 °FPartly sunny.6 mph77%29.68 "Hg4 mi
8:30 AM61 °FClear.6 mph83%29.65 "Hg4 mi
8:00 AM61 °FClear.6 mph83%29.65 "Hg4 mi
7:30 AM61 °FClear.6 mph83%29.65 "Hg4 mi
7:00 AM59 °FClear.6 mph82%29.65 "Hg4 mi
6:30 AM57 °FClear.6 mph88%29.65 "Hg4 mi
6:00 AM59 °FClear.6 mph82%29.65 "Hg4 mi
5:30 AM59 °FClear.6 mph82%29.65 "Hg4 mi
5:00 AM59 °FClear.6 mph82%29.65 "Hg4 mi
4:30 AM59 °FClear.8 mph82%29.65 "Hg4 mi
4:00 AM59 °FClear.8 mph82%29.62 "Hg4 mi
3:30 AM61 °FClear.8 mph77%29.62 "Hg4 mi
3:00 AM61 °FClear.8 mph77%29.62 "Hg4 mi
2:30 AM61 °FClear.10 mph77%29.65 "Hg4 mi
2:00 AM61 °FClear.10 mph77%29.65 "Hg5 mi
1:30 AM61 °FClear.10 mph77%29.65 "Hg5 mi
1:00 AM63 °FPassing clouds.10 mph68%29.65 "Hg5 mi
12:30 AM63 °FPassing clouds.10 mph73%29.68 "Hg5 mi
12:00 AM63 °FPassing clouds.8 mph73%29.68 "Hg5 mi
Weather by CustomWeather, © 2016

See weather overviewHow to use our weather pages